QPF
0.02 0.02 0.02 0.01 0.01 0.01 0.00 0.00 0.00 0.00 0.00 0.01 0.01 0.02 0.02 0.02 0.01 0.00 0.00 0.01 0.02 0.02 0.01 0.01 0.00 0.00 0.00 0.01 0.00 0.00 0.00 0.00 0.00 0.00 0.00 0.00 0.00 0.00 0.00 0.00 0.00 0.00 0.00 0.01 0.01 0.02 0.03 0.01 0.01 0.01 0.00 0.00 0.00 0.00 0.00 0.00 0.01 0.03 0.04 0.05 0.08 0.09 0.10 0.10 0.10 0.11 0.12 0.10 0.10
0.02 0.02 0.02 0.02 0.01 0.01 0.01 0.00 0.00 0.00 0.00 0.00 0.01 0.02 0.02 0.04 0.02 0.02 0.01 0.01 0.03 0.03 0.02 0.03 0.02 0.01 0.00 0.01 0.00 0.00 0.00 0.00 0.00 0.00 0.00 0.00 0.00 0.00 0.00 0.00 0.00 0.00 0.00 0.00 0.00 0.01 0.01 0.00 0.01 0.00 0.00 0.00 0.01 0.01 0.01 0.00 0.01 0.03 0.05 0.04 0.03 0.07 0.10 0.09 0.09 0.11 0.12 0.12 0.08
0.03 0.03 0.03 0.03 0.03 0.02 0.01 0.01 0.01 0.00 0.00 0.00 0.00 0.01 0.03 0.03 0.04 0.04 0.04 0.03 0.03 0.04 0.04 0.04 0.04 0.03 0.01 0.00 0.00 0.00 0.00 0.00 0.00 0.00 0.00 0.00 0.00 0.00 0.00 0.00 0.00 0.00 0.00 0.00 0.00 0.00 0.00 0.00 0.01 0.01 0.00 0.00 0.01 0.01 0.01 0.00 0.00 0.03 0.06 0.04 0.02 0.06 0.10 0.08 0.08 0.12 0.16 0.19 0.14
0.07 0.06 0.06 0.05 0.04 0.03 0.02 0.01 0.01 0.00 0.00 0.00 0.00 0.01 0.02 0.03 0.04 0.05 0.05 0.04 0.05 0.07 0.07 0.05 0.04 0.03 0.02 0.00 0.00 0.00 0.00 0.00 0.00 0.00 0.00 0.00 0.00 0.00 0.00 0.00 0.00 0.00 0.00 0.00 0.00 0.00 0.01 0.02 0.03 0.02 0.01 0.00 0.01 0.01 0.00 0.00 0.00 0.03 0.06 0.07 0.03 0.03 0.06 0.09 0.08 0.11 0.17 0.22 0.21
0.13 0.11 0.09 0.07 0.06 0.05 0.03 0.01 0.01 0.00 0.00 0.00 0.01 0.02 0.03 0.02 0.01 0.03 0.07 0.11 0.11 0.11 0.10 0.07 0.06 0.04 0.03 0.03 0.02 0.01 0.00 0.00 0.00 0.00 0.00 0.00 0.00 0.00 0.00 0.00 0.00 0.00 0.00 0.00 0.01 0.01 0.02 0.04 0.04 0.03 0.01 0.01 0.00 0.00 0.00 0.00 0.00 0.02 0.05 0.09 0.06 0.04 0.04 0.06 0.09 0.11 0.15 0.18 0.19
0.20 0.16 0.12 0.09 0.08 0.07 0.05 0.03 0.02 0.01 0.01 0.01 0.01 0.02 0.03 0.03 0.03 0.04 0.06 0.11 0.11 0.09 0.07 0.07 0.07 0.09 0.10 0.07 0.05 0.03 0.01 0.00 0.00 0.00 0.00 0.00 0.00 0.00 0.00 0.00 0.00 0.00 0.00 0.00 0.01 0.02 0.04 0.04 0.04 0.03 0.03 0.02 0.01 0.00 0.00 0.00 0.00 0.01 0.03 0.09 0.09 0.08 0.07 0.08 0.15 0.15 0.15 0.20 0.23
0.22 0.18 0.15 0.11 0.10 0.09 0.08 0.06 0.05 0.03 0.02 0.02 0.03 0.03 0.03 0.02 0.01 0.02 0.04 0.06 0.07 0.08 0.09 0.12 0.12 0.12 0.11 0.10 0.07 0.06 0.03 0.00 0.00 0.00 0.00 0.00 0.00 0.00 0.00 0.00 0.00 0.00 0.00 0.00 0.00 0.02 0.04 0.04 0.04 0.03 0.03 0.03 0.02 0.01 0.00 0.00 0.00 0.00 0.02 0.07 0.10 0.11 0.12 0.14 0.14 0.17 0.19 0.17 0.21
0.24 0.20 0.17 0.14 0.13 0.11 0.09 0.09 0.09 0.08 0.06 0.03 0.02 0.03 0.03 0.02 0.02 0.02 0.03 0.04 0.05 0.05 0.06 0.07 0.08 0.08 0.08 0.07 0.07 0.06 0.03 0.00 0.00 0.00 0.00 0.00 0.00 0.00 0.00 0.00 0.00 0.00 0.00 0.00 0.01 0.02 0.03 0.04 0.03 0.03 0.02 0.03 0.03 0.02 0.00 0.00 0.00 0.00 0.02 0.05 0.10 0.14 0.17 0.21 0.19 0.20 0.22 0.20 0.24
0.27 0.22 0.19 0.18 0.18 0.16 0.14 0.12 0.12 0.11 0.09 0.05 0.04 0.03 0.04 0.03 0.03 0.03 0.04 0.05 0.08 0.09 0.09 0.07 0.06 0.06 0.06 0.06 0.05 0.06 0.05 0.01 0.00 0.00 0.00 0.00 0.00 0.00 0.00 0.00 0.00 0.00 0.00 0.00 0.00 0.02 0.04 0.05 0.04 0.03 0.02 0.01 0.03 0.03 0.02 0.00 0.00 0.00 0.00 0.01 0.06 0.14 0.20 0.24 0.24 0.25 0.27 0.33 0.29
0.19 0.18 0.21 0.26 0.25 0.23 0.21 0.17 0.16 0.13 0.10 0.07 0.05 0.05 0.06 0.08 0.06 0.05 0.06 0.09 0.14 0.15 0.14 0.10 0.08 0.07 0.07 0.06 0.05 0.05 0.04 0.02 0.01 0.00 0.00 0.00 0.00 0.00 0.00 0.00 0.00 0.00 0.00 0.00 0.01 0.04 0.07 0.07 0.05 0.03 0.02 0.02 0.02 0.03 0.04 0.01 0.00 0.00 0.00 0.00 0.02 0.10 0.19 0.27 0.24 0.23 0.27 0.34 0.35
0.18 0.19 0.19 0.23 0.24 0.25 0.25 0.23 0.21 0.17 0.14 0.13 0.11 0.12 0.13 0.11 0.08 0.06 0.08 0.14 0.14 0.14 0.12 0.09 0.10 0.09 0.07 0.06 0.06 0.05 0.04 0.04 0.01 0.00 0.00 0.01 0.01 0.00 0.00 0.00 0.00 0.00 0.00 0.01 0.02 0.05 0.08 0.06 0.04 0.04 0.03 0.02 0.02 0.03 0.04 0.03 0.02 0.01 0.00 0.00 0.01 0.06 0.14 0.24 0.25 0.24 0.25 0.31 0.34
0.23 0.17 0.12 0.13 0.15 0.21 0.25 0.23 0.23 0.20 0.17 0.15 0.15 0.16 0.17 0.16 0.12 0.11 0.11 0.11 0.12 0.11 0.11 0.14 0.11 0.10 0.09 0.07 0.06 0.06 0.06 0.06 0.02 0.01 0.01 0.01 0.01 0.01 0.01 0.01 0.01 0.01 0.01 0.02 0.04 0.06 0.07 0.04 0.04 0.04 0.04 0.03 0.03 0.03 0.04 0.05 0.05 0.02 0.00 0.00 0.00 0.02 0.06 0.16 0.23 0.23 0.23 0.25 0.33
0.43 0.30 0.16 0.10 0.09 0.15 0.22 0.27 0.27 0.25 0.21 0.18 0.17 0.18 0.19 0.21 0.18 0.16 0.14 0.12 0.11 0.11 0.12 0.15 0.11 0.10 0.10 0.10 0.09 0.09 0.09 0.08 0.05 0.03 0.02 0.01 0.02 0.03 0.03 0.04 0.02 0.02 0.03 0.04 0.05 0.06 0.06 0.04 0.04 0.05 0.06 0.05 0.03 0.03 0.03 0.04 0.07 0.05 0.01 0.00 0.00 0.01 0.03 0.05 0.16 0.20 0.21 0.23 0.31
0.81 0.57 0.34 0.22 0.13 0.11 0.17 0.28 0.30 0.31 0.30 0.23 0.23 0.23 0.24 0.25 0.26 0.23 0.19 0.15 0.13 0.12 0.12 0.13 0.14 0.12 0.11 0.15 0.14 0.12 0.11 0.09 0.08 0.05 0.02 0.02 0.02 0.03 0.04 0.04 0.02 0.03 0.05 0.05 0.05 0.05 0.05 0.03 0.04 0.08 0.10 0.09 0.06 0.04 0.02 0.03 0.05 0.05 0.03 0.01 0.01 0.01 0.02 0.03 0.07 0.13 0.19 0.22 0.27
1.04 0.80 0.56 0.48 0.33 0.25 0.22 0.25 0.32 0.36 0.36 0.32 0.33 0.34 0.34 0.32 0.33 0.30 0.25 0.21 0.18 0.16 0.14 0.13 0.16 0.15 0.14 0.18 0.16 0.13 0.11 0.10 0.09 0.06 0.04 0.04 0.03 0.03 0.03 0.03 0.02 0.04 0.05 0.05 0.05 0.05 0.05 0.04 0.07 0.11 0.14 0.14 0.10 0.06 0.03 0.02 0.03 0.04 0.04 0.03 0.02 0.01 0.02 0.02 0.04 0.09 0.14 0.20 0.24
0.85 0.84 0.74 0.62 0.54 0.43 0.35 0.34 0.42 0.45 0.44 0.42 0.41 0.42 0.42 0.41 0.40 0.36 0.32 0.31 0.27 0.23 0.20 0.17 0.19 0.20 0.21 0.22 0.19 0.16 0.13 0.11 0.08 0.06 0.04 0.04 0.04 0.04 0.03 0.02 0.03 0.04 0.04 0.04 0.05 0.05 0.06 0.07 0.12 0.15 0.17 0.18 0.15 0.10 0.06 0.03 0.03 0.04 0.05 0.06 0.03 0.02 0.02 0.02 0.02 0.05 0.10 0.18 0.22
0.43 0.49 0.54 0.55 0.55 0.50 0.45 0.47 0.61 0.61 0.56 0.56 0.52 0.51 0.51 0.50 0.49 0.45 0.41 0.39 0.40 0.34 0.28 0.25 0.22 0.23 0.23 0.21 0.18 0.18 0.18 0.15 0.11 0.07 0.05 0.03 0.03 0.03 0.03 0.03 0.03 0.03 0.03 0.04 0.05 0.05 0.07 0.09 0.15 0.18 0.20 0.20 0.19 0.16 0.11 0.06 0.04 0.04 0.06 0.08 0.07 0.04 0.02 0.02 0.02 0.04 0.08 0.16 0.21
0.30 0.20 0.19 0.21 0.25 0.27 0.30 0.40 0.54 0.62 0.64 0.60 0.59 0.57 0.53 0.49 0.50 0.45 0.39 0.38 0.44 0.41 0.34 0.28 0.26 0.25 0.22 0.15 0.15 0.18 0.20 0.19 0.15 0.10 0.07 0.03 0.03 0.03 0.03 0.03 0.04 0.04 0.05 0.05 0.05 0.05 0.06 0.08 0.16 0.21 0.23 0.23 0.28 0.25 0.18 0.11 0.07 0.06 0.06 0.08 0.10 0.09 0.07 0.04 0.06 0.07 0.08 0.14 0.20
0.39 0.29 0.25 0.12 0.07 0.06 0.08 0.14 0.26 0.44 0.56 0.48 0.53 0.50 0.44 0.38 0.39 0.35 0.31 0.31 0.36 0.37 0.34 0.25 0.26 0.25 0.20 0.15 0.14 0.16 0.19 0.20 0.15 0.11 0.10 0.09 0.07 0.06 0.04 0.03 0.04 0.05 0.06 0.07 0.06 0.06 0.07 0.08 0.18 0.24 0.28 0.31 0.38 0.35 0.26 0.16 0.12 0.10 0.09 0.11 0.12 0.13 0.15 0.16 0.14 0.12 0.11 0.12 0.18
0.39 0.33 0.31 0.26 0.19 0.15 0.12 0.09 0.12 0.23 0.31 0.29 0.31 0.34 0.33 0.25 0.23 0.24 0.26 0.26 0.30 0.32 0.30 0.24 0.25 0.24 0.21 0.11 0.12 0.16 0.20 0.22 0.17 0.14 0.14 0.17 0.11 0.08 0.07 0.06 0.05 0.05 0.07 0.08 0.08 0.09 0.10 0.11 0.22 0.30 0.35 0.38 0.43 0.40 0.32 0.21 0.18 0.15 0.14 0.16 0.16 0.18 0.20 0.22 0.20 0.17 0.14 0.12 0.17
0.34 0.32 0.30 0.30 0.28 0.27 0.24 0.14 0.09 0.10 0.13 0.14 0.11 0.17 0.21 0.14 0.16 0.23 0.27 0.24 0.27 0.28 0.29 0.26 0.25 0.25 0.24 0.18 0.15 0.17 0.21 0.24 0.22 0.19 0.17 0.20 0.16 0.12 0.10 0.08 0.07 0.07 0.08 0.09 0.10 0.11 0.14 0.17 0.29 0.36 0.42 0.46 0.46 0.41 0.34 0.26 0.23 0.19 0.18 0.20 0.22 0.23 0.24 0.23 0.22 0.20 0.17 0.12 0.15
0.37 0.42 0.46 0.45 0.35 0.31 0.29 0.23 0.13 0.10 0.09 0.09 0.04 0.06 0.09 0.07 0.15 0.23 0.27 0.20 0.20 0.21 0.22 0.24 0.26 0.27 0.27 0.26 0.13 0.12 0.17 0.24 0.28 0.27 0.23 0.18 0.15 0.12 0.09 0.07 0.07 0.07 0.08 0.08 0.09 0.11 0.16 0.23 0.35 0.43 0.48 0.51 0.49 0.44 0.37 0.30 0.30 0.26 0.23 0.22 0.26 0.28 0.28 0.28 0.25 0.22 0.18 0.16 0.12
0.20 0.27 0.36 0.40 0.32 0.27 0.24 0.23 0.14 0.11 0.10 0.09 0.04 0.02 0.02 0.03 0.11 0.20 0.25 0.18 0.14 0.12 0.13 0.19 0.25 0.29 0.29 0.25 0.11 0.08 0.14 0.21 0.28 0.30 0.25 0.15 0.12 0.10 0.08 0.05 0.05 0.06 0.07 0.07 0.08 0.11 0.17 0.25 0.41 0.49 0.51 0.45 0.50 0.49 0.45 0.36 0.34 0.32 0.30 0.28 0.32 0.33 0.33 0.33 0.28 0.23 0.20 0.18 0.15
0.06 0.10 0.15 0.19 0.20 0.20 0.18 0.17 0.17 0.14 0.10 0.08 0.06 0.06 0.07 0.10 0.09 0.14 0.20 0.21 0.11 0.07 0.07 0.09 0.19 0.27 0.31 0.28 0.14 0.09 0.10 0.13 0.17 0.19 0.19 0.13 0.09 0.08 0.08 0.08 0.07 0.07 0.07 0.06 0.07 0.09 0.15 0.27 0.36 0.45 0.48 0.38 0.50 0.54 0.51 0.42 0.37 0.35 0.34 0.32 0.35 0.37 0.37 0.37 0.35 0.30 0.25 0.22 0.17
0.03 0.05 0.06 0.07 0.10 0.12 0.12 0.13 0.30 0.33 0.31 0.31 0.24 0.20 0.20 0.23 0.22 0.20 0.20 0.29 0.12 0.05 0.04 0.03 0.11 0.24 0.35 0.37 0.28 0.15 0.05 0.07 0.05 0.07 0.10 0.10 0.11 0.13 0.14 0.14 0.13 0.11 0.09 0.06 0.06 0.07 0.13 0.25 0.34 0.44 0.48 0.42 0.55 0.60 0.58 0.53 0.41 0.35 0.32 0.28 0.33 0.34 0.35 0.39 0.39 0.35 0.29 0.23 0.19
0.06 0.07 0.08 0.09 0.08 0.06 0.04 0.02 0.08 0.13 0.15 0.18 0.19 0.19 0.20 0.25 0.27 0.22 0.23 0.38 0.19 0.10 0.09 0.08 0.13 0.22 0.31 0.37 0.25 0.13 0.05 0.06 0.06 0.10 0.13 0.14 0.14 0.18 0.22 0.24 0.17 0.13 0.09 0.06 0.06 0.07 0.12 0.25 0.31 0.36 0.42 0.51 0.59 0.65 0.67 0.67 0.49 0.39 0.33 0.28 0.29 0.28 0.30 0.35 0.38 0.36 0.32 0.27 0.25
0.05 0.06 0.06 0.05 0.04 0.03 0.02 0.00 0.01 0.01 0.01 0.02 0.02 0.04 0.06 0.12 0.14 0.14 0.18 0.32 0.27 0.22 0.18 0.16 0.19 0.18 0.19 0.24 0.19 0.15 0.13 0.15 0.21 0.25 0.27 0.24 0.23 0.23 0.24 0.27 0.26 0.17 0.07 0.06 0.07 0.08 0.13 0.25 0.26 0.29 0.35 0.45 0.58 0.64 0.67 0.69 0.58 0.49 0.42 0.36 0.32 0.29 0.26 0.23 0.27 0.30 0.31 0.31 0.32
0.04 0.04 0.04 0.03 0.02 0.02 0.01 0.01 0.00 0.00 0.00 0.00 0.00 0.00 0.01 0.01 0.02 0.05 0.08 0.11 0.20 0.23 0.22 0.24 0.24 0.24 0.24 0.24 0.22 0.22 0.28 0.39 0.46 0.47 0.44 0.37 0.34 0.30 0.28 0.28 0.28 0.22 0.13 0.07 0.09 0.12 0.15 0.21 0.28 0.31 0.35 0.45 0.55 0.61 0.65 0.68 0.65 0.58 0.48 0.37 0.33 0.30 0.27 0.23 0.21 0.23 0.26 0.29 0.35
0.05 0.05 0.04 0.03 0.02 0.02 0.01 0.01 0.00 0.00 0.00 0.00 0.01 0.01 0.01 0.00 0.00 0.00 0.02 0.04 0.12 0.16 0.18 0.22 0.20 0.20 0.20 0.18 0.17 0.20 0.30 0.44 0.50 0.51 0.48 0.42 0.41 0.39 0.36 0.33 0.30 0.23 0.16 0.13 0.17 0.19 0.22 0.28 0.40 0.45 0.48 0.52 0.61 0.70 0.75 0.70 0.65 0.59 0.51 0.40 0.33 0.31 0.31 0.28 0.24 0.22 0.22 0.22 0.32
0.08 0.06 0.04 0.03 0.02 0.02 0.01 0.01 0.01 0.00 0.01 0.01 0.02 0.02 0.01 0.01 0.01 0.01 0.02 0.03 0.06 0.10 0.12 0.10 0.10 0.10 0.11 0.12 0.17 0.24 0.32 0.39 0.46 0.46 0.43 0.39 0.40 0.41 0.41 0.43 0.38 0.28 0.19 0.18 0.24 0.27 0.31 0.40 0.50 0.59 0.66 0.69 0.81 0.91 0.98 0.97 0.71 0.58 0.55 0.56 0.45 0.37 0.32 0.29 0.26 0.24 0.23 0.22 0.26
0.14 0.12 0.10 0.07 0.04 0.02 0.02 0.01 0.01 0.01 0.02 0.03 0.03 0.03 0.03 0.02 0.03 0.03 0.04 0.05 0.06 0.06 0.07 0.07 0.07 0.08 0.11 0.17 0.24 0.33 0.40 0.46 0.46 0.42 0.36 0.32 0.31 0.32 0.34 0.39 0.36 0.34 0.31 0.31 0.28 0.29 0.34 0.45 0.57 0.69 0.81 0.88 1.02 1.11 1.15 1.17 1.13 0.94 0.82 0.97 0.91 0.76 0.59 0.50 0.44 0.35 0.28 0.26 0.29
0.22 0.20 0.18 0.14 0.11 0.08 0.06 0.04 0.03 0.03 0.04 0.06 0.06 0.06 0.07 0.09 0.09 0.09 0.08 0.08 0.06 0.05 0.06 0.06 0.08 0.12 0.17 0.25 0.33 0.40 0.45 0.49 0.49 0.42 0.34 0.29 0.27 0.27 0.29 0.33 0.36 0.37 0.35 0.31 0.27 0.27 0.30 0.39 0.52 0.65 0.75 0.81 0.88 0.88 0.87 0.88 0.90 0.86 0.77 0.63 0.73 0.76 0.78 0.85 0.75 0.62 0.49 0.41 0.37
0.25 0.23 0.20 0.17 0.15 0.13 0.10 0.08 0.06 0.07 0.08 0.09 0.09 0.09 0.10 0.10 0.11 0.11 0.10 0.09 0.07 0.06 0.06 0.08 0.13 0.19 0.25 0.32 0.38 0.44 0.48 0.50 0.49 0.43 0.35 0.26 0.24 0.25 0.28 0.31 0.34 0.35 0.35 0.35 0.33 0.30 0.29 0.34 0.48 0.59 0.66 0.68 0.70 0.68 0.66 0.67 0.68 0.61 0.52 0.46 0.47 0.51 0.55 0.60 0.63 0.71 0.73 0.59 0.55
0.18 0.15 0.13 0.11 0.09 0.09 0.08 0.08 0.08 0.09 0.09 0.10 0.11 0.11 0.12 0.14 0.14 0.14 0.13 0.12 0.10 0.08 0.09 0.14 0.18 0.24 0.29 0.35 0.39 0.45 0.49 0.51 0.49 0.47 0.41 0.27 0.26 0.28 0.30 0.32 0.34 0.34 0.36 0.38 0.39 0.37 0.34 0.30 0.44 0.56 0.63 0.61 0.60 0.59 0.59 0.61 0.61 0.57 0.51 0.44 0.42 0.40 0.40 0.40 0.44 0.54 0.65 0.71 0.61
0.11 0.08 0.06 0.05 0.05 0.06 0.07 0.09 0.10 0.11 0.11 0.12 0.14 0.16 0.17 0.19 0.19 0.19 0.18 0.16 0.12 0.12 0.15 0.20 0.23 0.27 0.32 0.37 0.41 0.46 0.50 0.52 0.50 0.47 0.43 0.36 0.30 0.28 0.30 0.33 0.34 0.34 0.35 0.38 0.41 0.43 0.43 0.41 0.41 0.50 0.58 0.57 0.56 0.56 0.57 0.60 0.60 0.57 0.53 0.49 0.45 0.43 0.40 0.37 0.37 0.38 0.43 0.52 0.45
0.13 0.10 0.08 0.07 0.07 0.08 0.09 0.12 0.13 0.14 0.15 0.16 0.18 0.21 0.23 0.23 0.21 0.21 0.20 0.19 0.13 0.14 0.20 0.25 0.28 0.32 0.37 0.41 0.46 0.50 0.54 0.54 0.51 0.48 0.45 0.43 0.35 0.31 0.31 0.35 0.35 0.35 0.35 0.35 0.39 0.43 0.46 0.49 0.50 0.51 0.52 0.51 0.51 0.52 0.53 0.57 0.56 0.56 0.55 0.52 0.48 0.44 0.41 0.39 0.36 0.32 0.29 0.29 0.31
0.16 0.14 0.12 0.12 0.11 0.12 0.13 0.17 0.18 0.20 0.22 0.23 0.25 0.27 0.26 0.23 0.20 0.20 0.19 0.17 0.13 0.15 0.21 0.31 0.35 0.39 0.43 0.44 0.49 0.53 0.55 0.53 0.50 0.46 0.45 0.45 0.43 0.38 0.35 0.37 0.35 0.35 0.35 0.36 0.37 0.41 0.46 0.51 0.50 0.50 0.50 0.47 0.46 0.46 0.47 0.49 0.50 0.51 0.52 0.51 0.48 0.43 0.39 0.36 0.34 0.30 0.27 0.24 0.25
0.21 0.19 0.18 0.18 0.16 0.16 0.18 0.24 0.25 0.28 0.30 0.31 0.30 0.29 0.26 0.21 0.19 0.19 0.18 0.17 0.16 0.20 0.27 0.36 0.40 0.44 0.45 0.43 0.46 0.48 0.50 0.51 0.46 0.43 0.42 0.42 0.45 0.43 0.39 0.34 0.32 0.32 0.33 0.34 0.39 0.42 0.45 0.48 0.47 0.46 0.47 0.51 0.47 0.42 0.39 0.37 0.39 0.41 0.41 0.41 0.37 0.34 0.32 0.29 0.26 0.25 0.22 0.17 0.19
0.28 0.27 0.25 0.24 0.22 0.23 0.26 0.31 0.33 0.36 0.37 0.35 0.32 0.28 0.25 0.22 0.20 0.19 0.19 0.18 0.21 0.25 0.31 0.38 0.42 0.45 0.45 0.41 0.41 0.42 0.45 0.47 0.45 0.42 0.40 0.42 0.45 0.45 0.39 0.30 0.29 0.29 0.31 0.34 0.40 0.44 0.45 0.45 0.43 0.41 0.42 0.48 0.49 0.43 0.36 0.31 0.29 0.28 0.26 0.23 0.22 0.21 0.20 0.19 0.17 0.16 0.14 0.11 0.13
0.35 0.34 0.32 0.30 0.30 0.32 0.34 0.38 0.40 0.40 0.39 0.35 0.30 0.27 0.24 0.22 0.21 0.19 0.19 0.21 0.25 0.30 0.33 0.37 0.41 0.43 0.44 0.40 0.38 0.38 0.39 0.41 0.44 0.42 0.40 0.41 0.42 0.41 0.37 0.31 0.27 0.28 0.31 0.34 0.39 0.42 0.42 0.40 0.38 0.38 0.39 0.44 0.48 0.46 0.40 0.34 0.28 0.22 0.17 0.14 0.13 0.12 0.12 0.12 0.12 0.10 0.10 0.10 0.10
0.37 0.35 0.35 0.34 0.37 0.40 0.42 0.45 0.45 0.42 0.38 0.32 0.28 0.25 0.24 0.23 0.23 0.22 0.23 0.25 0.30 0.34 0.37 0.39 0.39 0.41 0.42 0.40 0.36 0.33 0.33 0.35 0.39 0.40 0.39 0.37 0.36 0.34 0.32 0.31 0.26 0.25 0.27 0.31 0.35 0.37 0.37 0.35 0.35 0.37 0.39 0.42 0.45 0.46 0.43 0.40 0.33 0.24 0.17 0.13 0.12 0.10 0.09 0.08 0.09 0.08 0.08 0.08 0.08
MSLP
1000.07 999.99 999.95 999.87 999.79 999.67 999.55 999.43 999.35 999.35 999.35 999.31 999.23 999.19 999.07 998.87 998.55 998.19 997.67 997.11 996.67 996.31 995.99 995.67 995.23 995.11 995.19 995.43 995.67 995.87 996.07 996.23 996.51 996.75 996.95 997.11 997.23 997.35 997.43 997.55 997.75 997.87 997.99 998.11 998.23 998.51 998.87 999.23 999.55 999.75 999.75 999.79 1000.07 1000.31 1000.55 1000.79 1000.99 1001.23 1001.43 1001.63 1001.95 1002.11 1002.39 1002.55 1002.79 1002.99 1003.11 1003.31 1003.55
999.51 999.43 999.35 999.35 999.31 999.23 999.11 999.07 998.95 998.95 998.95 998.95 998.95 998.87 998.75 998.63 998.39 997.99 997.43 996.95 996.51 996.19 995.95 995.75 995.31 994.99 994.87 995.07 995.23 995.51 995.67 995.95 996.19 996.43 996.67 996.79 996.99 997.11 997.23 997.35 997.51 997.63 997.79 997.95 998.11 998.39 998.67 998.95 999.23 999.51 999.67 999.75 1000.07 1000.39 1000.51 1000.51 1000.67 1000.95 1001.23 1001.51 1001.67 1001.95 1002.19 1002.39 1002.63 1002.79 1002.95 1003.19 1003.35
998.87 998.79 998.79 998.75 998.67 998.63 998.63 998.63 998.55 998.51 998.51 998.51 998.55 998.51 998.43 998.31 998.11 997.79 997.31 996.79 996.43 996.11 995.95 995.75 995.35 994.95 994.67 994.67 994.87 995.11 995.35 995.55 995.87 996.11 996.39 996.55 996.75 996.87 996.99 997.11 997.31 997.51 997.67 997.75 997.95 998.11 998.39 998.63 998.95 999.23 999.51 999.75 1000.07 1000.23 1000.23 1000.23 1000.43 1000.67 1000.99 1001.31 1001.51 1001.75 1001.95 1002.19 1002.39 1002.55 1002.75 1002.99 1003.19
998.23 998.07 997.99 997.99 997.99 997.99 997.99 997.99 997.95 997.99 998.07 998.11 998.11 998.19 998.19 997.99 997.79 997.51 997.11 996.75 996.39 996.07 995.79 995.67 995.35 994.87 994.43 994.39 994.63 994.79 994.99 995.23 995.55 995.79 996.07 996.31 996.51 996.63 996.75 996.87 997.11 997.31 997.43 997.63 997.75 997.95 998.11 998.39 998.79 999.19 999.43 999.67 999.95 999.99 999.99 1000.07 1000.23 1000.51 1000.79 1001.07 1001.23 1001.51 1001.75 1001.99 1002.19 1002.39 1002.63 1002.79 1003.07
997.51 997.23 997.19 997.19 997.19 997.23 997.31 997.31 997.35 997.51 997.63 997.75 997.87 997.87 997.79 997.75 997.55 997.31 996.99 996.67 996.31 995.95 995.63 995.51 995.31 994.95 994.43 994.19 994.31 994.51 994.75 994.99 995.23 995.51 995.79 996.07 996.19 996.39 996.55 996.67 996.87 997.07 997.23 997.43 997.55 997.75 997.95 998.23 998.63 999.11 999.43 999.63 999.67 999.67 999.67 999.79 1000.07 1000.31 1000.55 1000.87 1001.07 1001.23 1001.51 1001.79 1002.07 1002.23 1002.43 1002.67 1002.87
996.63 996.43 996.39 996.43 996.55 996.67 996.79 996.87 996.95 997.07 997.23 997.35 997.43 997.35 997.35 997.35 997.23 996.99 996.75 996.43 996.07 995.75 995.51 995.31 995.19 994.95 994.55 994.23 994.23 994.43 994.63 994.75 994.95 995.23 995.51 995.75 995.99 996.19 996.39 996.55 996.67 996.87 997.07 997.23 997.35 997.51 997.79 998.19 998.63 998.99 999.31 999.55 999.51 999.43 999.43 999.67 999.95 1000.19 1000.43 1000.75 1000.95 1001.11 1001.31 1001.55 1001.79 1002.07 1002.31 1002.55 1002.75
995.87 995.67 995.67 995.75 995.99 996.19 996.31 996.39 996.55 996.67 996.79 996.99 996.99 996.99 996.95 996.87 996.79 996.63 996.39 996.19 995.87 995.63 995.31 995.19 994.99 994.87 994.63 994.43 994.55 994.67 994.67 994.63 994.75 994.95 995.19 995.55 995.75 995.99 996.11 996.31 996.51 996.67 996.87 997.07 997.23 997.51 997.75 998.11 998.55 998.99 999.31 999.51 999.43 999.35 999.35 999.51 999.75 1000.07 1000.31 1000.55 1000.75 1000.95 1001.19 1001.35 1001.55 1001.87 1002.19 1002.39 1002.55
995.23 995.19 995.31 995.43 995.63 995.67 995.79 995.95 996.11 996.31 996.51 996.63 996.63 996.63 996.55 996.55 996.51 996.39 996.19 995.99 995.67 995.35 995.11 994.95 994.79 994.75 994.75 994.79 994.87 994.79 994.67 994.51 994.55 994.75 994.99 995.23 995.51 995.75 995.95 996.11 996.31 996.51 996.67 996.87 996.99 997.31 997.67 998.11 998.55 998.99 999.23 999.35 999.35 999.23 999.23 999.31 999.55 999.79 1000.11 1000.43 1000.55 1000.75 1000.99 1001.23 1001.43 1001.75 1001.99 1002.23 1002.43
994.79 994.87 994.99 995.11 995.31 995.35 995.51 995.55 995.79 995.99 996.19 996.23 996.23 996.23 996.31 996.31 996.31 996.19 995.99 995.75 995.51 995.19 994.95 994.75 994.67 994.67 994.79 994.95 994.99 994.95 994.67 994.43 994.43 994.55 994.79 995.07 995.31 995.55 995.79 995.99 996.19 996.31 996.51 996.75 996.87 997.19 997.55 998.11 998.63 998.95 999.07 999.11 999.11 999.07 999.07 999.19 999.43 999.67 999.95 1000.19 1000.43 1000.55 1000.79 1001.07 1001.23 1001.51 1001.79 1002.07 1002.23
994.51 994.55 994.67 994.87 994.99 995.19 995.31 995.51 995.67 995.79 995.95 995.99 996.07 996.07 996.07 996.07 995.99 995.87 995.75 995.51 995.31 995.11 994.87 994.67 994.55 994.63 994.75 994.95 994.99 994.99 994.79 994.55 994.39 994.43 994.67 994.87 995.11 995.35 995.63 995.79 995.99 996.19 996.39 996.55 996.75 997.07 997.55 998.19 998.63 998.75 998.75 998.75 998.79 998.79 998.87 999.07 999.31 999.55 999.79 999.99 1000.23 1000.51 1000.75 1000.95 1001.11 1001.35 1001.63 1001.87 1002.07
994.19 994.23 994.43 994.63 994.75 994.95 995.19 995.35 995.51 995.63 995.75 995.79 995.79 995.87 995.87 995.79 995.67 995.55 995.43 995.31 995.19 994.99 994.75 994.55 994.43 994.43 994.63 994.79 994.87 994.87 994.79 994.63 994.39 994.31 994.51 994.67 994.99 995.19 995.35 995.63 995.79 995.99 996.19 996.39 996.63 996.99 997.55 998.07 998.39 998.51 998.63 998.63 998.63 998.67 998.75 998.99 999.19 999.43 999.63 999.79 1000.07 1000.31 1000.63 1000.79 1000.99 1001.19 1001.35 1001.63 1001.87
994.07 993.99 994.11 994.31 994.63 994.79 994.99 995.19 995.23 995.35 995.51 995.55 995.63 995.63 995.63 995.55 995.43 995.31 995.19 995.11 994.99 994.79 994.63 994.43 994.39 994.39 994.51 994.67 994.75 994.75 994.75 994.67 994.39 994.23 994.31 994.55 994.79 995.07 995.31 995.51 995.67 995.95 996.19 996.39 996.55 996.99 997.55 997.79 998.07 998.23 998.39 998.43 998.51 998.55 998.67 998.95 999.11 999.35 999.51 999.67 999.95 1000.19 1000.43 1000.67 1000.87 1001.07 1001.23 1001.43 1001.67
993.95 993.87 993.95 994.19 994.43 994.67 994.87 994.99 995.11 995.19 995.23 995.31 995.31 995.35 995.35 995.35 995.23 995.11 994.99 994.95 994.75 994.55 994.43 994.39 994.39 994.39 994.51 994.67 994.75 994.75 994.75 994.63 994.31 994.19 994.23 994.43 994.67 994.95 995.11 995.35 995.63 995.87 996.07 996.23 996.51 996.95 997.31 997.55 997.75 997.95 998.07 998.23 998.31 998.43 998.63 998.79 999.07 999.23 999.43 999.55 999.79 999.99 1000.23 1000.51 1000.75 1000.95 1001.07 1001.23 1001.43
993.95 993.87 993.87 994.07 994.31 994.55 994.75 994.87 994.87 994.95 994.99 994.99 995.07 995.11 995.19 995.19 994.99 994.87 994.75 994.63 994.55 994.51 994.39 994.39 994.31 994.39 994.43 994.55 994.67 994.87 994.79 994.51 994.31 994.23 994.23 994.39 994.55 994.79 994.99 995.23 995.55 995.75 995.99 996.23 996.51 996.79 997.11 997.35 997.55 997.75 997.87 997.99 998.11 998.31 998.55 998.75 998.95 999.11 999.31 999.51 999.67 999.87 1000.07 1000.31 1000.55 1000.75 1000.95 1001.11 1001.23
993.99 993.87 993.79 993.95 994.11 994.39 994.51 994.55 994.63 994.63 994.67 994.67 994.79 994.87 994.95 994.87 994.75 994.55 994.43 994.43 994.43 994.39 994.31 994.23 994.23 994.23 994.31 994.43 994.67 994.95 994.87 994.51 994.31 994.31 994.39 994.43 994.55 994.67 994.95 995.19 995.43 995.67 995.95 996.23 996.55 996.87 997.11 997.35 997.55 997.63 997.75 997.95 998.07 998.23 998.51 998.67 998.87 999.07 999.23 999.43 999.55 999.75 999.95 1000.07 1000.31 1000.55 1000.75 1000.87 1001.07
994.07 993.95 993.87 993.79 993.95 994.11 994.19 994.31 994.31 994.31 994.39 994.39 994.43 994.51 994.51 994.51 994.39 994.23 994.23 994.19 994.19 994.19 994.11 994.07 994.07 994.07 994.23 994.43 994.67 994.87 994.87 994.55 994.39 994.39 994.51 994.51 994.51 994.63 994.87 995.11 995.35 995.67 995.99 996.31 996.63 996.87 997.11 997.35 997.51 997.63 997.75 997.87 998.07 998.23 998.43 998.63 998.87 999.07 999.19 999.35 999.55 999.67 999.79 999.87 1000.11 1000.31 1000.51 1000.67 1000.79
994.11 993.99 993.95 993.79 993.79 993.87 993.95 993.99 994.07 994.07 994.07 994.07 994.11 994.11 994.19 994.19 994.07 994.07 994.11 994.07 994.07 994.07 993.99 993.95 993.95 994.07 994.19 994.39 994.63 994.79 994.87 994.67 994.55 994.43 994.43 994.39 994.43 994.55 994.79 995.11 995.35 995.63 995.95 996.31 996.63 996.95 997.19 997.35 997.51 997.63 997.67 997.79 997.99 998.19 998.39 998.63 998.79 998.99 999.19 999.31 999.51 999.63 999.75 999.79 999.95 1000.11 1000.31 1000.51 1000.63
994.19 994.07 993.99 993.87 993.75 993.75 993.75 993.75 993.75 993.75 993.75 993.79 993.87 993.95 993.99 993.99 993.99 993.99 994.07 994.07 993.99 993.99 993.95 993.87 993.87 993.95 993.99 994.11 994.31 994.51 994.67 994.67 994.51 994.39 994.23 994.31 994.43 994.63 994.87 995.11 995.31 995.63 995.95 996.31 996.63 996.95 997.11 997.35 997.51 997.63 997.67 997.79 997.99 998.19 998.39 998.55 998.75 998.95 999.11 999.23 999.43 999.55 999.67 999.75 999.87 999.99 1000.11 1000.23 1000.43
994.23 994.19 994.11 993.95 993.79 993.75 993.63 993.51 993.35 993.35 993.43 993.51 993.63 993.75 993.79 993.87 993.87 993.87 993.95 993.95 993.95 993.95 993.95 993.95 993.79 993.75 993.75 993.75 993.87 994.07 994.19 994.31 994.23 994.23 994.31 994.43 994.55 994.75 994.95 995.19 995.43 995.75 996.11 996.43 996.67 996.95 997.19 997.35 997.51 997.55 997.67 997.79 997.99 998.19 998.39 998.51 998.67 998.87 998.99 999.19 999.31 999.51 999.55 999.67 999.75 999.79 999.87 999.99 1000.19
994.23 994.19 994.07 993.95 993.87 993.79 993.67 993.51 993.23 993.07 992.99 993.07 993.23 993.35 993.51 993.63 993.63 993.63 993.63 993.67 993.67 993.67 993.67 993.67 993.55 993.51 993.43 993.43 993.51 993.67 993.87 993.99 994.11 994.23 994.43 994.55 994.75 994.87 995.07 995.31 995.67 996.07 996.43 996.67 996.79 996.99 997.23 997.35 997.43 997.51 997.63 997.75 997.99 998.19 998.39 998.51 998.67 998.79 998.95 999.07 999.23 999.35 999.43 999.63 999.63 999.67 999.79 999.87 999.99
994.19 994.19 994.19 994.07 993.95 993.79 993.67 993.43 993.23 992.99 992.87 992.75 992.87 992.95 993.07 993.19 993.23 993.23 993.31 993.35 993.35 993.35 993.35 993.31 993.31 993.23 993.23 993.35 993.43 993.63 993.79 993.95 994.11 994.39 994.63 994.79 994.99 995.11 995.31 995.67 996.07 996.39 996.63 996.87 996.95 996.99 997.11 997.19 997.23 997.35 997.55 997.75 997.95 998.11 998.31 998.51 998.63 998.79 998.95 999.07 999.19 999.23 999.35 999.43 999.55 999.55 999.63 999.75 999.87
994.23 994.19 994.19 994.11 993.99 993.87 993.75 993.51 993.23 993.07 992.87 992.75 992.63 992.67 992.79 992.87 992.95 992.99 993.07 993.19 993.19 993.11 993.11 993.07 993.07 993.11 993.23 993.35 993.51 993.63 993.79 993.95 994.23 994.63 994.99 995.19 995.23 995.43 995.63 995.95 996.19 996.31 996.43 996.63 996.67 996.75 996.87 996.99 997.07 997.31 997.51 997.75 997.87 998.07 998.23 998.43 998.55 998.75 998.87 998.99 999.07 999.19 999.23 999.31 999.43 999.51 999.51 999.63 999.75
994.51 994.11 993.99 993.99 993.95 993.87 993.79 993.63 993.35 993.19 992.99 992.79 992.75 992.75 992.79 992.79 992.87 992.79 992.87 992.95 992.95 992.87 992.87 992.87 992.95 993.07 993.23 993.35 993.51 993.67 993.79 994.11 994.55 994.95 995.23 995.35 995.31 995.43 995.55 995.75 995.87 995.99 996.11 996.23 996.31 996.43 996.63 996.87 997.07 997.23 997.43 997.67 997.79 997.99 998.19 998.31 998.51 998.63 998.75 998.87 998.99 999.07 999.19 999.31 999.35 999.51 999.55 999.55 999.67
994.87 994.43 994.11 993.95 993.75 993.63 993.63 993.63 993.55 993.43 993.35 993.19 993.11 992.99 992.99 993.07 993.07 992.99 992.95 992.95 992.95 992.79 992.75 992.79 992.99 993.23 993.55 993.75 993.79 993.87 993.99 994.39 994.79 995.07 995.23 995.31 995.23 995.31 995.43 995.55 995.63 995.75 995.87 995.99 996.19 996.39 996.63 996.79 997.07 997.23 997.43 997.63 997.75 997.95 998.07 998.23 998.43 998.55 998.67 998.75 998.87 998.99 999.11 999.23 999.43 999.55 999.55 999.51 999.51
995.35 994.95 994.55 994.19 993.99 993.79 993.75 993.67 993.67 993.67 993.67 993.67 993.55 993.51 993.55 993.63 993.63 993.55 993.55 993.51 993.19 992.95 992.79 992.95 993.23 993.75 994.07 994.19 994.19 994.07 994.07 994.39 994.63 994.87 995.11 995.23 995.31 995.35 995.43 995.51 995.51 995.55 995.75 996.07 996.39 996.55 996.67 996.87 996.99 997.11 997.31 997.51 997.67 997.79 997.99 998.11 998.23 998.43 998.55 998.67 998.79 998.95 999.07 999.19 999.35 999.51 999.51 999.43 999.35
995.67 995.31 994.95 994.63 994.31 994.11 993.95 993.79 993.75 993.67 993.67 993.75 993.75 993.75 993.87 993.99 993.99 993.95 993.99 993.99 993.67 993.31 993.11 993.19 993.51 993.99 994.31 994.31 994.19 994.11 994.11 994.19 994.31 994.51 994.75 994.99 995.23 995.43 995.51 995.55 995.63 995.67 995.95 996.23 996.51 996.55 996.67 996.87 996.99 997.11 997.23 997.43 997.63 997.79 997.99 998.11 998.23 998.39 998.43 998.55 998.67 998.79 998.95 999.11 999.23 999.31 999.31 999.31 999.31
995.99 995.63 995.31 994.99 994.75 994.55 994.31 994.07 993.95 993.87 993.79 993.87 993.87 993.87 993.87 993.95 993.87 993.87 993.99 994.07 993.95 993.75 993.55 993.35 993.55 993.87 994.11 994.07 993.99 994.07 994.11 994.19 994.23 994.43 994.63 994.79 995.11 995.35 995.51 995.63 995.79 995.99 996.19 996.51 996.55 996.63 996.67 996.79 996.99 997.11 997.23 997.35 997.55 997.75 997.87 997.99 998.11 998.23 998.39 998.51 998.55 998.67 998.79 998.87 998.99 999.07 999.19 999.23 999.23
996.31 995.99 995.67 995.35 995.19 994.99 994.75 994.43 994.23 994.11 994.07 993.95 993.95 993.87 993.79 993.75 993.75 993.75 993.79 993.87 993.95 993.99 993.79 993.63 993.79 993.95 993.99 993.99 993.95 993.99 994.23 994.39 994.43 994.63 994.75 994.75 994.99 995.23 995.51 995.75 995.99 996.19 996.39 996.55 996.63 996.63 996.67 996.87 996.99 997.11 997.23 997.35 997.43 997.63 997.79 997.95 998.11 998.31 998.43 998.55 998.55 998.55 998.63 998.67 998.75 998.79 998.95 999.11 999.19
996.63 996.39 996.07 995.79 995.63 995.35 995.11 994.95 994.75 994.55 994.39 994.19 993.99 993.87 993.75 993.63 993.55 993.55 993.63 993.75 993.79 993.87 993.95 993.87 993.75 993.75 993.95 994.11 994.11 994.19 994.31 994.51 994.63 994.75 994.87 994.79 994.95 995.19 995.51 995.67 995.99 996.31 996.55 996.63 996.63 996.63 996.67 996.87 997.07 997.19 997.31 997.43 997.43 997.55 997.79 998.11 998.31 998.43 998.51 998.51 998.51 998.51 998.55 998.55 998.55 998.67 998.75 998.95 999.11
996.95 996.67 996.39 996.11 995.95 995.67 995.51 995.31 995.07 994.87 994.67 994.51 994.31 994.11 993.95 993.75 993.55 993.43 993.43 993.55 993.63 993.67 993.67 993.87 993.87 993.95 994.11 994.31 994.39 994.51 994.55 994.67 994.79 994.95 995.11 995.19 995.11 995.31 995.55 995.79 996.07 996.39 996.55 996.63 996.63 996.67 996.79 996.99 997.23 997.43 997.51 997.63 997.67 997.87 998.07 998.23 998.31 998.43 998.43 998.39 998.39 998.31 998.31 998.39 998.39 998.43 998.63 998.79 998.99
997.35 997.07 996.75 996.43 996.23 996.07 995.79 995.63 995.35 995.19 994.95 994.75 994.55 994.39 994.19 993.95 993.67 993.51 993.35 993.35 993.51 993.63 993.75 993.95 994.11 994.31 994.43 994.51 994.63 994.79 994.95 995.07 995.11 995.23 995.35 995.51 995.67 995.87 995.99 996.11 996.31 996.43 996.55 996.67 996.75 996.79 996.99 997.19 997.35 997.55 997.67 997.79 997.99 998.19 998.39 998.43 998.55 998.63 998.67 998.63 998.43 998.23 998.11 998.19 998.19 998.23 998.39 998.63 998.87
997.67 997.35 997.07 996.75 996.55 996.43 996.23 995.99 995.75 995.51 995.23 994.99 994.79 994.67 994.55 994.39 994.11 993.79 993.63 993.51 993.63 993.75 993.99 994.19 994.39 994.63 994.79 994.95 995.11 995.23 995.31 995.51 995.55 995.63 995.67 995.79 995.99 996.19 996.39 996.43 996.63 996.67 996.75 996.79 996.87 997.07 997.23 997.43 997.55 997.67 997.87 998.07 998.39 998.55 998.75 998.87 999.07 999.19 999.19 999.11 998.99 998.75 998.51 998.31 998.31 998.31 998.31 998.51 998.67
997.99 997.75 997.43 997.19 996.99 996.79 996.55 996.31 996.07 995.79 995.51 995.31 995.19 995.07 994.95 994.79 994.55 994.39 994.11 993.99 994.07 994.23 994.43 994.63 994.79 994.99 995.23 995.43 995.51 995.67 995.87 995.95 995.99 996.07 996.11 996.19 996.31 996.43 996.67 996.87 996.95 996.99 996.95 996.95 997.07 997.23 997.43 997.63 997.75 997.87 998.07 998.39 998.63 998.87 998.99 999.19 999.35 999.51 999.63 999.63 999.51 999.31 999.19 999.19 999.07 998.79 998.55 998.63 998.67
998.31 998.07 997.79 997.55 997.31 997.11 996.95 996.67 996.39 996.11 995.87 995.67 995.63 995.55 995.51 995.31 995.11 994.99 994.79 994.67 994.67 994.79 994.99 995.19 995.31 995.51 995.67 995.79 995.95 996.11 996.31 996.43 996.43 996.51 996.51 996.55 996.63 996.79 997.07 997.23 997.35 997.35 997.23 997.11 997.19 997.35 997.63 997.79 997.95 998.07 998.31 998.63 998.87 999.11 999.31 999.51 999.75 999.95 999.99 999.99 999.95 999.79 999.63 999.43 999.23 999.19 999.19 999.11 999.07
998.67 998.43 998.19 997.87 997.67 997.51 997.23 996.99 996.75 996.51 996.23 996.19 996.11 996.07 995.99 995.79 995.67 995.63 995.43 995.31 995.19 995.31 995.55 995.75 995.79 995.99 996.19 996.39 996.51 996.63 996.75 996.87 996.87 996.95 996.99 997.07 997.11 997.23 997.51 997.75 997.87 997.87 997.67 997.43 997.35 997.51 997.67 997.95 997.99 998.19 998.51 998.79 999.11 999.35 999.55 999.79 999.99 1000.11 1000.07 1000.07 1000.19 1000.19 1000.07 999.87 999.79 999.67 999.67 999.63 999.67
999.07 998.75 998.51 998.31 998.07 997.79 997.55 997.31 997.11 996.95 996.79 996.67 996.67 996.55 996.51 996.39 996.31 996.23 996.07 995.87 995.67 995.79 996.07 996.23 996.39 996.55 996.75 996.95 997.11 997.19 997.31 997.35 997.43 997.43 997.51 997.55 997.63 997.79 997.95 998.11 998.31 998.39 998.23 997.87 997.67 997.63 997.75 997.95 998.07 998.31 998.63 998.95 999.23 999.51 999.67 999.87 999.95 999.95 1000.07 1000.39 1000.67 1000.75 1000.55 1000.39 1000.39 1000.23 1000.19 1000.11 1000.11
999.43 999.11 998.87 998.63 998.43 998.19 997.95 997.75 997.55 997.43 997.35 997.31 997.23 997.11 997.07 996.95 996.87 996.79 996.67 996.51 996.39 996.43 996.67 996.87 997.07 997.23 997.43 997.51 997.67 997.79 997.87 997.95 997.95 997.95 998.07 998.11 998.11 998.23 998.39 998.51 998.63 998.67 998.63 998.43 998.07 997.95 997.95 997.95 998.11 998.43 998.75 999.11 999.43 999.63 999.67 999.67 999.75 999.95 1000.43 1000.99 1001.23 1001.11 1000.87 1000.75 1000.67 1000.67 1000.75 1000.79 1000.75
999.79 999.51 999.23 998.99 998.79 998.63 998.39 998.19 998.07 997.95 997.87 997.79 997.75 997.67 997.55 997.51 997.51 997.43 997.35 997.19 997.11 997.23 997.35 997.55 997.75 997.95 998.07 998.11 998.23 998.39 998.55 998.51 998.51 998.51 998.55 998.67 998.75 998.75 998.75 998.87 998.99 999.07 998.95 998.75 998.39 998.19 998.11 998.19 998.43 998.63 998.95 999.23 999.43 999.51 999.51 999.67 1000.07 1000.55 1001.11 1001.51 1001.55 1001.35 1001.19 1001.19 1001.19 1001.23 1001.43 1001.51 1001.51
1000.11 999.87 999.63 999.35 999.19 998.99 998.79 998.67 998.55 998.51 998.43 998.31 998.23 998.19 998.11 998.07 998.11 998.07 998.07 997.95 997.95 997.95 997.99 998.11 998.39 998.55 998.67 998.67 998.75 998.95 999.07 999.11 999.07 999.07 999.11 999.19 999.31 999.23 999.11 999.19 999.31 999.35 999.31 998.99 998.75 998.51 998.51 998.55 998.79 998.99 999.11 999.23 999.35 999.51 999.79 1000.31 1000.95 1001.35 1001.67 1001.79 1001.75 1001.67 1001.63 1001.67 1001.75 1001.87 1001.99 1002.07 1001.99
1000.51 1000.19 999.99 999.75 999.55 999.35 999.23 999.11 999.07 998.99 998.95 998.79 998.75 998.67 998.67 998.67 998.67 998.67 998.63 998.63 998.55 998.51 998.55 998.75 998.99 999.19 999.19 999.19 999.19 999.31 999.43 999.63 999.63 999.63 999.67 999.67 999.75 999.63 999.51 999.51 999.63 999.67 999.51 999.23 999.07 998.95 998.95 998.99 999.19 999.23 999.31 999.43 999.55 999.95 1000.51 1001.19 1001.67 1001.95 1001.99 1001.95 1001.87 1001.95 1001.99 1002.11 1002.19 1002.31 1002.43 1002.51 1002.55
1000.79 1000.55 1000.39 1000.19 999.99 999.79 999.67 999.55 999.51 999.43 999.35 999.31 999.31 999.31 999.31 999.23 999.23 999.23 999.19 999.11 999.07 999.07 999.19 999.35 999.55 999.63 999.63 999.55 999.55 999.67 999.87 1000.07 1000.23 1000.31 1000.31 1000.23 1000.19 1000.07 999.99 999.95 999.95 999.95 999.79 999.63 999.43 999.35 999.35 999.51 999.55 999.55 999.63 999.75 1000.11 1000.67 1001.31 1001.79 1002.07 1002.19 1002.19 1002.11 1002.07 1002.11 1002.23 1002.43 1002.55 1002.75 1002.95 1003.07 1003.19
Thickness
5486 5485 5484 5483 5483 5483 5483 5484 5484 5485 5486 5489 5494 5499 5505 5512 5520 5529 5538 5547 5554 5561 5568 5575 5582 5587 5588 5589 5590 5591 5592 5592 5592 5593 5594 5596 5599 5601 5603 5604 5606 5607 5608 5608 5608 5608 5606 5604 5603 5603 5604 5604 5604 5603 5602 5602 5602 5601 5601 5600 5600 5599 5599 5599 5599 5601 5602 5603 5604
5488 5486 5484 5482 5482 5481 5481 5481 5481 5482 5482 5485 5488 5492 5498 5505 5514 5523 5533 5542 5550 5557 5564 5570 5578 5584 5587 5588 5590 5591 5592 5592 5592 5593 5594 5596 5598 5601 5602 5603 5605 5605 5606 5606 5607 5606 5605 5604 5603 5602 5602 5602 5601 5600 5600 5601 5602 5601 5601 5600 5598 5599 5599 5599 5600 5601 5602 5603 5604
5489 5487 5485 5484 5483 5482 5481 5480 5480 5480 5480 5481 5483 5486 5492 5499 5507 5517 5528 5537 5545 5553 5559 5566 5573 5582 5587 5588 5590 5590 5591 5592 5592 5592 5593 5595 5597 5599 5601 5602 5603 5604 5604 5605 5605 5605 5605 5604 5602 5600 5599 5599 5598 5598 5600 5601 5601 5601 5600 5599 5598 5598 5598 5599 5600 5600 5601 5602 5604
5491 5490 5488 5487 5485 5484 5482 5482 5480 5479 5478 5478 5479 5482 5486 5493 5501 5512 5523 5532 5540 5548 5555 5561 5570 5578 5585 5587 5589 5590 5591 5592 5592 5592 5593 5594 5596 5598 5600 5601 5601 5602 5603 5603 5604 5604 5604 5603 5600 5598 5597 5597 5597 5598 5599 5600 5600 5600 5599 5598 5598 5598 5598 5599 5599 5600 5601 5602 5603
5494 5493 5492 5490 5488 5487 5484 5483 5481 5478 5477 5476 5476 5479 5483 5490 5497 5507 5517 5527 5536 5544 5552 5559 5566 5574 5582 5587 5589 5590 5591 5592 5592 5592 5593 5594 5595 5597 5598 5599 5600 5601 5601 5602 5602 5602 5603 5601 5598 5595 5594 5595 5597 5599 5600 5600 5599 5598 5598 5598 5598 5598 5598 5599 5599 5600 5600 5601 5603
5498 5498 5496 5494 5491 5488 5485 5483 5481 5478 5476 5474 5474 5477 5481 5487 5495 5503 5513 5523 5533 5542 5550 5557 5563 5571 5579 5585 5587 5589 5590 5591 5592 5592 5593 5594 5595 5596 5597 5597 5599 5599 5600 5601 5601 5601 5600 5598 5595 5593 5592 5593 5596 5597 5599 5599 5598 5597 5597 5597 5597 5598 5599 5599 5599 5600 5600 5601 5603
5502 5501 5499 5496 5493 5490 5486 5483 5481 5478 5476 5474 5473 5476 5480 5486 5494 5502 5511 5521 5530 5539 5547 5555 5561 5567 5574 5580 5582 5584 5588 5590 5591 5592 5592 5593 5594 5595 5596 5597 5597 5598 5599 5599 5600 5599 5597 5595 5592 5591 5590 5591 5593 5596 5597 5597 5597 5597 5596 5596 5597 5598 5598 5599 5599 5600 5600 5601 5602
5505 5502 5499 5496 5493 5489 5487 5484 5481 5478 5475 5473 5473 5475 5480 5486 5492 5501 5509 5518 5527 5537 5546 5553 5560 5565 5569 5573 5576 5580 5585 5588 5591 5592 5592 5593 5593 5594 5595 5596 5596 5597 5597 5598 5598 5597 5594 5592 5590 5588 5588 5590 5592 5594 5596 5597 5597 5596 5596 5596 5597 5598 5598 5598 5599 5599 5599 5601 5602
5505 5503 5499 5495 5492 5489 5486 5484 5481 5478 5474 5472 5472 5475 5479 5485 5492 5499 5508 5516 5526 5535 5544 5552 5558 5563 5567 5569 5573 5577 5581 5587 5590 5591 5591 5592 5592 5593 5594 5594 5595 5595 5596 5596 5596 5596 5593 5588 5586 5586 5588 5590 5592 5594 5595 5596 5596 5596 5596 5596 5597 5597 5598 5599 5599 5599 5599 5600 5601
5506 5503 5499 5495 5492 5489 5486 5484 5481 5476 5474 5471 5472 5475 5479 5484 5492 5499 5507 5516 5525 5534 5543 5551 5558 5562 5565 5567 5570 5573 5577 5584 5588 5590 5591 5591 5592 5591 5592 5593 5593 5593 5594 5594 5595 5593 5590 5586 5584 5585 5588 5590 5592 5594 5595 5595 5595 5595 5596 5596 5597 5597 5598 5598 5599 5599 5599 5600 5601
5508 5505 5501 5496 5493 5490 5486 5483 5479 5475 5473 5472 5472 5475 5479 5486 5493 5501 5509 5517 5525 5533 5541 5550 5556 5561 5563 5566 5568 5571 5575 5581 5585 5588 5589 5590 5590 5590 5591 5591 5591 5592 5593 5593 5593 5591 5587 5584 5584 5585 5588 5589 5592 5594 5594 5594 5595 5595 5596 5597 5597 5597 5597 5597 5598 5598 5599 5600 5601
5508 5506 5503 5498 5494 5490 5486 5483 5479 5476 5474 5474 5475 5478 5483 5489 5496 5503 5511 5518 5526 5534 5541 5549 5555 5558 5561 5564 5567 5570 5574 5578 5584 5587 5587 5588 5589 5589 5589 5589 5590 5590 5590 5591 5590 5588 5585 5584 5585 5586 5588 5589 5591 5592 5593 5593 5593 5594 5595 5596 5597 5597 5597 5597 5597 5598 5599 5600 5601
5508 5506 5503 5499 5495 5491 5487 5484 5481 5478 5477 5477 5479 5482 5487 5493 5499 5506 5513 5521 5527 5534 5541 5547 5552 5556 5559 5562 5566 5569 5573 5578 5581 5584 5586 5586 5586 5587 5587 5588 5588 5588 5588 5588 5588 5587 5585 5585 5586 5587 5588 5589 5590 5592 5592 5592 5593 5594 5595 5596 5597 5597 5597 5597 5598 5598 5599 5600 5601
5508 5506 5503 5500 5496 5493 5490 5487 5484 5482 5482 5482 5484 5487 5491 5497 5503 5510 5517 5524 5529 5535 5541 5546 5551 5554 5558 5561 5563 5566 5570 5576 5579 5581 5583 5584 5584 5585 5585 5585 5585 5586 5586 5586 5585 5585 5585 5585 5586 5588 5589 5589 5591 5591 5592 5592 5593 5594 5594 5595 5596 5596 5597 5597 5598 5598 5599 5600 5601
5508 5507 5504 5502 5499 5496 5493 5491 5489 5488 5487 5488 5490 5492 5496 5501 5507 5514 5521 5527 5532 5537 5542 5547 5551 5555 5558 5560 5562 5564 5568 5574 5576 5577 5579 5581 5583 5583 5584 5584 5584 5584 5584 5584 5583 5584 5584 5585 5586 5587 5588 5589 5589 5590 5591 5592 5592 5593 5594 5594 5595 5596 5596 5597 5598 5598 5599 5600 5601
5508 5507 5506 5504 5501 5499 5498 5497 5496 5494 5494 5495 5496 5499 5502 5507 5513 5519 5524 5530 5535 5540 5544 5548 5552 5555 5558 5560 5561 5563 5566 5572 5574 5575 5576 5579 5581 5583 5583 5583 5583 5583 5583 5582 5581 5582 5582 5583 5585 5586 5587 5588 5588 5589 5590 5591 5592 5593 5593 5593 5594 5594 5596 5598 5599 5599 5600 5601 5602
5509 5507 5506 5505 5504 5503 5503 5504 5504 5503 5502 5502 5504 5506 5509 5514 5519 5523 5527 5532 5537 5542 5547 5550 5553 5557 5561 5562 5562 5562 5565 5568 5571 5573 5575 5578 5580 5581 5582 5582 5582 5581 5581 5580 5580 5580 5581 5582 5583 5584 5586 5586 5588 5588 5589 5590 5591 5591 5592 5592 5593 5594 5595 5596 5598 5599 5600 5602 5603
5510 5508 5506 5506 5507 5507 5508 5508 5509 5511 5511 5511 5513 5514 5517 5521 5526 5530 5532 5536 5539 5544 5549 5553 5556 5560 5564 5565 5564 5563 5564 5567 5569 5572 5575 5577 5578 5579 5580 5579 5580 5580 5579 5578 5578 5579 5580 5580 5581 5582 5584 5585 5586 5587 5588 5589 5589 5590 5590 5591 5592 5593 5594 5596 5598 5599 5601 5602 5604
5511 5510 5508 5508 5509 5510 5511 5511 5512 5514 5516 5517 5518 5520 5523 5527 5530 5533 5535 5538 5541 5545 5549 5551 5554 5558 5562 5565 5565 5564 5565 5567 5570 5571 5573 5574 5575 5576 5577 5577 5578 5576 5576 5576 5576 5577 5577 5579 5580 5581 5582 5583 5584 5585 5586 5587 5588 5590 5590 5591 5591 5592 5594 5596 5597 5599 5601 5603 5605
5512 5511 5511 5511 5511 5512 5513 5514 5516 5518 5520 5521 5523 5524 5526 5528 5531 5533 5535 5538 5540 5544 5547 5549 5553 5557 5560 5563 5564 5565 5566 5568 5569 5570 5570 5572 5572 5573 5574 5574 5574 5572 5571 5572 5573 5574 5575 5577 5578 5580 5581 5583 5584 5584 5585 5586 5588 5588 5589 5590 5591 5592 5594 5595 5597 5599 5602 5604 5605
5512 5512 5513 5514 5513 5513 5513 5515 5518 5520 5523 5525 5527 5529 5530 5532 5534 5536 5538 5540 5543 5546 5548 5552 5554 5557 5559 5561 5562 5564 5565 5567 5567 5567 5567 5566 5568 5569 5571 5571 5569 5569 5569 5570 5571 5572 5574 5576 5578 5579 5581 5582 5583 5584 5585 5585 5586 5587 5588 5590 5591 5592 5593 5595 5597 5600 5602 5603 5605
5509 5512 5515 5516 5515 5514 5515 5516 5518 5521 5525 5527 5530 5532 5533 5534 5537 5539 5540 5543 5545 5548 5551 5553 5555 5557 5559 5560 5562 5563 5564 5565 5564 5564 5563 5563 5565 5566 5568 5568 5568 5569 5570 5570 5571 5573 5575 5576 5579 5579 5581 5582 5582 5583 5584 5585 5586 5586 5588 5589 5590 5592 5593 5596 5598 5600 5602 5603 5605
5505 5509 5512 5513 5514 5514 5515 5516 5518 5521 5524 5527 5530 5532 5534 5535 5537 5540 5542 5545 5547 5550 5553 5554 5556 5558 5558 5559 5560 5561 5562 5562 5562 5562 5562 5563 5564 5564 5565 5567 5567 5568 5569 5571 5573 5575 5576 5577 5579 5580 5581 5581 5582 5582 5583 5584 5585 5586 5587 5589 5590 5592 5594 5595 5597 5600 5601 5603 5605
5502 5505 5508 5510 5513 5514 5515 5518 5520 5522 5524 5526 5528 5530 5532 5534 5536 5539 5542 5544 5547 5550 5553 5555 5555 5555 5555 5555 5556 5558 5559 5559 5561 5562 5561 5561 5562 5564 5565 5566 5567 5570 5572 5573 5574 5576 5577 5578 5579 5580 5580 5581 5581 5582 5583 5584 5585 5586 5587 5588 5590 5591 5593 5594 5596 5599 5602 5604 5605
5499 5502 5505 5508 5510 5513 5515 5517 5521 5523 5524 5525 5525 5526 5528 5530 5532 5535 5538 5540 5544 5548 5551 5553 5552 5552 5554 5556 5556 5556 5556 5557 5559 5559 5560 5560 5560 5562 5565 5566 5568 5570 5572 5573 5574 5575 5576 5577 5578 5579 5579 5580 5581 5582 5583 5584 5585 5586 5587 5588 5589 5590 5592 5593 5595 5598 5601 5603 5605
5496 5499 5503 5506 5508 5510 5512 5513 5514 5517 5519 5521 5523 5524 5525 5528 5530 5533 5535 5538 5541 5545 5548 5549 5550 5552 5555 5560 5560 5558 5556 5557 5558 5560 5561 5560 5561 5562 5564 5565 5567 5568 5570 5571 5572 5574 5575 5576 5577 5578 5578 5579 5580 5581 5582 5583 5584 5586 5587 5588 5590 5591 5592 5593 5595 5597 5600 5601 5603
5494 5497 5500 5503 5505 5508 5510 5513 5514 5515 5517 5517 5519 5521 5522 5524 5528 5530 5532 5536 5541 5544 5547 5549 5552 5551 5551 5557 5559 5558 5556 5556 5558 5560 5560 5561 5561 5561 5562 5564 5565 5567 5568 5569 5570 5573 5574 5575 5575 5576 5577 5579 5580 5581 5582 5584 5585 5587 5587 5588 5589 5591 5592 5593 5595 5597 5599 5601 5603
5493 5495 5497 5500 5503 5505 5508 5511 5513 5514 5516 5517 5519 5521 5522 5523 5525 5529 5532 5533 5536 5541 5545 5548 5549 5550 5551 5553 5555 5555 5555 5555 5555 5556 5558 5561 5562 5561 5562 5563 5564 5565 5566 5567 5569 5571 5573 5574 5574 5576 5576 5578 5580 5582 5583 5584 5585 5586 5587 5588 5589 5591 5592 5593 5596 5597 5599 5600 5602
5491 5493 5496 5498 5500 5503 5505 5508 5510 5512 5515 5517 5519 5521 5523 5525 5528 5530 5532 5533 5534 5536 5539 5543 5548 5550 5550 5550 5551 5552 5553 5553 5554 5555 5557 5560 5561 5561 5561 5562 5563 5563 5564 5566 5569 5570 5572 5573 5573 5574 5575 5577 5579 5581 5582 5583 5583 5584 5585 5587 5589 5591 5592 5594 5596 5598 5600 5600 5602
5489 5491 5494 5496 5498 5501 5503 5505 5507 5510 5512 5515 5518 5520 5523 5526 5529 5532 5534 5535 5535 5538 5540 5542 5544 5545 5545 5545 5546 5547 5548 5550 5552 5554 5556 5558 5558 5559 5560 5561 5562 5563 5565 5566 5569 5570 5571 5571 5571 5572 5573 5575 5576 5578 5579 5580 5581 5582 5584 5587 5590 5592 5594 5596 5597 5599 5600 5601 5602
5488 5490 5492 5495 5496 5498 5501 5503 5505 5508 5511 5514 5516 5519 5522 5525 5528 5532 5535 5537 5537 5539 5541 5540 5539 5540 5542 5542 5543 5544 5546 5547 5549 5551 5553 5553 5554 5555 5557 5559 5561 5562 5564 5565 5568 5568 5569 5569 5570 5570 5571 5573 5572 5572 5573 5575 5576 5578 5581 5584 5589 5593 5596 5599 5602 5602 5602 5602 5602
5485 5488 5490 5492 5495 5497 5498 5501 5504 5507 5510 5512 5515 5518 5520 5523 5526 5530 5534 5536 5538 5538 5537 5538 5538 5538 5539 5539 5540 5540 5542 5543 5545 5547 5549 5550 5552 5553 5555 5556 5558 5559 5561 5563 5564 5565 5564 5565 5566 5567 5567 5568 5567 5567 5568 5570 5571 5573 5575 5579 5583 5588 5594 5599 5603 5604 5604 5604 5603
5482 5485 5488 5491 5493 5495 5498 5500 5503 5506 5509 5511 5513 5515 5517 5520 5523 5527 5530 5532 5534 5534 5534 5534 5534 5534 5535 5535 5536 5537 5538 5540 5541 5544 5546 5549 5551 5552 5553 5553 5555 5556 5558 5560 5561 5561 5561 5561 5563 5564 5564 5564 5563 5564 5565 5566 5567 5569 5571 5574 5578 5582 5585 5589 5592 5597 5602 5605 5605
5479 5483 5486 5488 5491 5494 5496 5499 5502 5504 5507 5510 5511 5513 5515 5517 5520 5523 5526 5529 5530 5530 5530 5530 5531 5531 5532 5532 5534 5534 5536 5537 5540 5542 5545 5547 5549 5549 5550 5550 5551 5553 5555 5558 5559 5559 5559 5559 5560 5561 5560 5559 5560 5560 5560 5561 5562 5564 5567 5569 5572 5577 5581 5585 5590 5593 5596 5600 5602
5477 5480 5483 5486 5488 5492 5494 5497 5500 5503 5506 5507 5509 5511 5513 5515 5517 5520 5522 5525 5527 5528 5527 5527 5528 5529 5529 5530 5532 5533 5535 5536 5539 5541 5542 5545 5545 5546 5546 5545 5546 5548 5551 5555 5557 5558 5557 5558 5558 5558 5558 5558 5557 5556 5557 5558 5559 5561 5563 5566 5569 5573 5578 5583 5587 5588 5589 5590 5593
5475 5478 5481 5484 5487 5489 5492 5495 5498 5500 5503 5504 5506 5508 5510 5512 5514 5516 5519 5522 5525 5526 5525 5526 5527 5527 5528 5528 5530 5531 5533 5534 5536 5538 5539 5541 5542 5542 5542 5542 5543 5544 5546 5550 5554 5555 5556 5556 5557 5558 5557 5555 5555 5556 5557 5558 5558 5561 5563 5564 5566 5571 5577 5582 5582 5583 5585 5586 5588
5473 5476 5479 5482 5484 5487 5490 5493 5496 5498 5500 5502 5503 5505 5507 5509 5511 5513 5516 5520 5522 5523 5522 5523 5523 5524 5524 5525 5527 5528 5529 5531 5533 5534 5535 5536 5537 5538 5539 5539 5539 5541 5543 5546 5550 5553 5555 5556 5557 5558 5557 5555 5555 5556 5557 5559 5560 5560 5560 5562 5567 5573 5577 5580 5580 5580 5580 5581 5584
5472 5475 5477 5480 5483 5485 5488 5490 5493 5495 5497 5499 5500 5502 5505 5506 5508 5510 5513 5515 5517 5518 5518 5519 5519 5519 5521 5522 5523 5523 5524 5526 5528 5529 5531 5532 5532 5534 5535 5536 5537 5538 5540 5543 5548 5552 5554 5555 5557 5557 5556 5555 5556 5557 5558 5558 5557 5556 5559 5564 5568 5572 5573 5575 5574 5575 5574 5575 5578
5471 5473 5476 5479 5481 5484 5486 5488 5490 5492 5494 5496 5498 5500 5502 5503 5505 5507 5508 5511 5512 5514 5515 5515 5515 5515 5516 5517 5519 5520 5520 5522 5523 5525 5526 5527 5528 5531 5533 5534 5534 5536 5538 5542 5546 5550 5553 5554 5554 5555 5556 5556 5557 5557 5556 5554 5552 5554 5557 5562 5564 5565 5565 5566 5566 5566 5567 5568 5572
5469 5472 5475 5477 5480 5482 5484 5486 5488 5490 5491 5493 5495 5496 5498 5500 5501 5503 5504 5507 5509 5510 5511 5511 5510 5511 5512 5514 5516 5516 5517 5518 5519 5520 5522 5523 5525 5527 5530 5532 5533 5535 5537 5541 5545 5548 5550 5551 5552 5553 5554 5555 5554 5553 5551 5549 5549 5550 5552 5555 5556 5557 5557 5558 5559 5560 5561 5563 5566
5468 5471 5473 5475 5478 5480 5482 5484 5485 5487 5488 5490 5491 5493 5494 5496 5498 5499 5502 5503 5504 5507 5507 5507 5507 5507 5509 5511 5513 5513 5513 5514 5514 5515 5517 5519 5522 5524 5527 5529 5531 5533 5536 5539 5543 5545 5547 5548 5549 5551 5552 5552 5551 5550 5548 5547 5547 5549 5550 5552 5554 5554 5554 5555 5555 5556 5558 5559 5560